Location: Sperry Observatory
(40.6664°N, 74.3236°W)
Time: 14:24:11
(UTC-05:00)

UOSAT-12 - Visible Passes

Search period start: 24 February 2017 00:00
Search period end: 06 March 2017 00:00
Orbit: 610 x 644 km, 64.6° (Epoch: 23 February)

Date Brightness Start Highest point End Pass type
(mag) Time Alt. Az. Time Alt. Az. Time Alt. Az.
25 Feb 9.9 05:24:52 10° NNE 05:26:46 12° NE 05:28:41 10° ENE visible
26 Feb 9.5 05:43:32 10° N 05:47:06 21° NE 05:50:40 10° E visible
27 Feb 8.5 06:02:51 10° NNW 06:07:14 40° NE 06:11:35 10° ESE visible
28 Feb 9.9 04:43:57 10° N 04:46:21 14° NE 04:48:45 10° ENE visible
01 Mar 9.3 05:02:51 10° N 05:06:38 24° NE 05:10:25 10° E visible
02 Mar 8.2 05:22:14 10° NNW 05:26:43 47° NE 05:31:10 10° SE visible
03 Mar 9.9 04:03:07 10° N 04:05:55 16° NE 04:08:42 10° ENE visible
03 Mar 7.1 05:41:58 10° NW 05:46:36 82° WSW 05:51:13 10° SSE visible
04 Mar 9.1 04:22:10 10° NNW 04:26:09 28° NE 04:30:08 10° ESE visible
04 Mar 9.6 20:12:03 10° SSW 20:12:11 11° SSW 20:12:11 11° SSW visible
05 Mar 7.8 04:41:38 10° NNW 04:46:11 55° NE 04:50:44 10° SE visible
05 Mar 8.6 18:53:52 10° SSE 18:56:13 16° ESE 18:56:13 16° ESE visible
05 Mar 9.1 20:31:57 10° SW 20:33:39 22° WSW 20:33:39 22° WSW visible
